Flag for Germany Weather past 2 weeks in Neuruppin, Brandenburg, Germany

Now
44 °F

Overcast.


Feels Like: 44 °F
Forecast: 42 / 53 °F
Wind: 2 mph from Southwest

Location: Neuruppin

Current Time: Dec 18, 2014 at 5:28:19 AM

Latest Report: Dec 18, 2014 at 5:00 AM


Visibility: 6 mi

Pressure: 29.75 "Hg

Humidity: 95%

Dew point: 43 °F

Location of NeuruppinLocation

Historic Weather in Neuruppin — Graph

°F

Neuruppin temperature yesterday

Maximum temperature yesterday: 39 °F (at 3:00 PM)
Minimum temperature yesterday: 32 °F (at 7:00 AM)
Average temperature yesterday: 36 °F

Past Weeks' High & Low Weather Summary

 TemperatureHumidityPressure
High49 °F (Dec 12, 8:00 PM)100% (Dec 5, 12:00 PM)30.37 "Hg (Dec 5, 12:00 PM)
Low26 °F (Dec 3, 4:00 AM)76% (Dec 12, 5:00 PM)29.32 "Hg (Dec 12, 6:00 PM)
Average37 °F91%29.97 "Hg
* Reported Dec 3 3:00 AM — Dec 18 3:00 AM, Neuruppin, Weather by CustomWeather, © 2014

Note: Actual official high and low records may vary slightly from our data, if they occured in-between our weather recording intervals... More about our weather records

Advertising

Neuruppin weather history for previous 24 hours

 ConditionsComfort  
Time TempWeatherWind HumidityBarometerVisibility
3:00 AM
Dec 18
44 °FLow clouds.3 mph97%29.72 "Hg6 mi
2:00 AM43 °FLow clouds.2 mph99%29.70 "Hg2 mi
1:00 AM41 °FLow clouds.2 mph100%29.68 "Hg3 mi
12:00 AM39 °FLow clouds.2 mph98%29.67 "Hg5 mi
11:00 PM
Dec 17
38 °FLow clouds.1 mph98%29.65 "Hg3 mi
9:00 PM38 °FLow clouds.3 mph97%29.63 "Hg6 mi
8:00 PM38 °FLow clouds.3 mph97%29.62 "Hg6 mi
7:00 PM38 °FLow clouds.5 mph97%29.62 "Hg6 mi
6:00 PM38 °FLow clouds.5 mph97%29.62 "Hg6 mi
5:00 PM38 °FLow clouds.6 mph96%29.62 "Hg6 mi
4:00 PM38 °FOvercast.5 mph93%29.64 "Hg6 mi
3:00 PM39 °FOvercast.6 mph85%29.64 "Hg6 mi
2:00 PM38 °FOvercast.5 mph85%29.66 "Hg6 mi
1:00 PM38 °FOvercast.5 mph89%29.70 "Hg6 mi
12:00 PM37 °FOvercast.5 mph89%29.74 "Hg6 mi
11:00 AM36 °FOvercast.5 mph89%29.76 "Hg6 mi
9:00 AM33 °FOvercast.2 mph96%29.81 "Hg6 mi
8:00 AM33 °FOvercast.2 mph95%29.82 "Hg6 mi
7:00 AM32 °FClear.2 mph95%29.83 "Hg6 mi
6:00 AM33 °FPassing clouds.2 mph95%29.83 "Hg6 mi
5:00 AM34 °FPassing clouds.2 mph95%29.83 "Hg4 mi
Weather by CustomWeather, © 2014

See weather overviewHow to use our weather pages